Location: Unnamed
(23.5608°S, 46.6833°W)
Time: 09:56:32
(UTC-03:00)

COSMOS 2251 DEB - Pass Details

Date: 13 December 2023
Orbit: 677 x 699 km, 74.0° (Epoch: 02 March)

Event Time Altitude Azimuth Distance (km) Brightness Sun altitude
Rises 21:46:44 0° 208° (SSW) 3,055 ? -33.0°
Reaches altitude 10° 21:49:13 10° 217° (SW) 2,136 ? -33.3°
Enters shadow 21:52:01 27° 246° (WSW) 1,306 ? -33.7°
